TimeCST,TemperatureF,Dew PointF,Humidity,Sea Level PressureIn,VisibilityMPH,Wind Direction,Wind SpeedMPH,Gust SpeedMPH,PrecipitationIn,Events,Conditions,WindDirDegrees,DateUTC
12:03 AM,26.6,24.8,93,29.77,2.5,ESE,5.8,-,0.00,Snow,Light Snow,110,2013-02-22 06:03:00
12:39 AM,26.6,24.8,93,29.77,2.5,ESE,4.6,-,0.00,Snow,Light Snow,120,2013-02-22 06:39:00
12:55 AM,26.1,25.0,96,29.81,2.5,SE,5.8,-,0.00,Snow,Light Snow,140,2013-02-22 06:55:00
1:11 AM,26.6,24.8,93,29.76,3.0,SE,5.8,-,0.00,,Overcast,130,2013-02-22 07:11:00
1:32 AM,26.6,24.8,93,29.76,2.5,SE,6.9,-,0.00,,Overcast,140,2013-02-22 07:32:00
1:55 AM,27.0,26.1,96,29.81,2.0,SSE,6.9,-,0.00,,Overcast,160,2013-02-22 07:55:00
2:06 AM,26.6,26.6,100,29.76,2.5,SSE,6.9,-,N/A,,Overcast,160,2013-02-22 08:06:00
2:40 AM,26.6,26.6,100,29.75,4.0,South,5.8,-,0.00,,Overcast,180,2013-02-22 08:40:00
2:55 AM,27.0,26.1,96,29.80,6.0,SSW,5.8,-,0.00,,Overcast,200,2013-02-22 08:55:00
3:55 AM,27.0,26.1,96,29.78,4.0,SW,5.8,-,N/A,,Overcast,230,2013-02-22 09:55:00
4:52 AM,26.6,24.8,93,29.76,6.0,WSW,6.9,-,0.00,Snow,Light Snow,250,2013-02-22 10:52:00
4:55 AM,27.0,25.0,92,29.81,5.0,West,9.2,-,0.00,Snow,Light Snow,260,2013-02-22 10:55:00
5:26 AM,26.6,23.0,86,29.77,7.0,West,15.0,20.7,0.00,,Overcast,270,2013-02-22 11:26:00
5:55 AM,26.1,23.0,88,29.83,8.0,West,11.5,18.4,0.00,,Overcast,260,2013-02-22 11:55:00
6:55 AM,25.0,21.0,85,29.85,10.0,West,11.5,-,N/A,,Overcast,270,2013-02-22 12:55:00
7:28 AM,24.8,21.2,86,29.81,10.0,West,6.9,-,N/A,,Overcast,270,2013-02-22 13:28:00
7:55 AM,25.0,21.0,85,29.88,10.0,West,6.9,-,N/A,,Overcast,260,2013-02-22 13:55:00
8:04 AM,24.8,21.2,86,29.84,10.0,WSW,10.4,-,N/A,,Overcast,250,2013-02-22 14:04:00
8:15 AM,24.8,21.2,86,29.85,10.0,WSW,8.1,-,N/A,,Overcast,250,2013-02-22 14:15:00
8:55 AM,25.0,19.9,81,29.91,10.0,SW,8.1,-,N/A,,Overcast,230,2013-02-22 14:55:00
9:14 AM,26.6,19.4,74,29.87,10.0,West,15.0,20.7,N/A,,Overcast,260,2013-02-22 15:14:00
9:55 AM,25.0,19.9,81,29.94,10.0,West,12.7,20.7,N/A,,Overcast,270,2013-02-22 15:55:00
10:55 AM,24.1,19.0,81,29.96,8.0,West,10.4,19.6,N/A,,Overcast,270,2013-02-22 16:55:00
11:55 AM,26.1,19.0,75,29.97,10.0,West,9.2,-,N/A,,Overcast,270,2013-02-22 17:55:00
12:55 PM,27.0,19.0,72,29.97,10.0,WSW,12.7,18.4,N/A,,Overcast,250,2013-02-22 18:55:00
1:55 PM,27.0,19.0,72,29.98,10.0,WSW,13.8,-,N/A,,Overcast,250,2013-02-22 19:55:00
2:55 PM,28.0,19.0,69,29.98,10.0,West,9.2,-,N/A,,Overcast,260,2013-02-22 20:55:00
3:55 PM,28.0,18.0,66,29.99,10.0,WSW,11.5,-,N/A,,Overcast,250,2013-02-22 21:55:00
4:55 PM,26.1,17.1,69,30.01,10.0,West,12.7,19.6,N/A,,Overcast,270,2013-02-22 22:55:00
5:55 PM,26.1,17.1,69,30.03,10.0,West,12.7,17.3,N/A,,Overcast,270,2013-02-22 23:55:00
6:55 PM,24.1,16.0,71,30.05,10.0,West,8.1,-,N/A,,Mostly Cloudy,260,2013-02-23 00:55:00
7:55 PM,23.0,16.0,74,30.06,10.0,West,9.2,-,N/A,,Overcast,260,2013-02-23 01:55:00
8:55 PM,21.9,15.1,75,30.07,10.0,West,8.1,-,N/A,,Overcast,260,2013-02-23 02:55:00
9:46 PM,19.4,14.0,80,30.02,10.0,West,6.9,-,N/A,,Scattered Clouds,270,2013-02-23 03:46:00
9:55 PM,19.9,14.0,78,30.07,10.0,West,4.6,-,N/A,,Partly Cloudy,270,2013-02-23 03:55:00
10:34 PM,19.4,14.0,80,30.03,10.0,West,4.6,-,N/A,,Mostly Cloudy,260,2013-02-23 04:34:00
10:55 PM,19.0,12.9,77,30.07,10.0,West,4.6,-,N/A,,Overcast,260,2013-02-23 04:55:00
11:13 PM,19.4,12.2,74,30.02,10.0,West,5.8,-,N/A,,Scattered Clouds,260,2013-02-23 05:13:00
11:55 PM,17.1,12.9,84,30.07,9.0,West,5.8,-,N/A,,Partly Cloudy,260,2013-02-23 05:55:00